DLH297 EDDH-EDDM

Flight info

Callsign DLH297
Flight time 0h 55m
Altitude 35000
Route AMLUH2G/33 AMLUH M852 DENIX DCT ZUCKA DCT SODRO/N0491F310 T703 LULAR/N0491F300 T105 LANDU LANDU2B
Aircraft A359/H-SDE2E3GHIJ3J4J5LM1ORWXY/LB1D1

Departure

Time 2026-05-07 15:24
Airport Hamburg Helmut Schmidt Airport (EDDH)

Arrival

Time 2026-05-07 16:19
Airport Munich Airport (EDDM)
Time Latitude Longitude Altitude Speed Heading
2026-05-07 14:52 53.63011 10.00341 57 ft 0 kts 122°
2026-05-07 14:52 53.63011 10.00340 57 ft 0 kts 122°
2026-05-07 15:02 53.63011 10.00339 57 ft 0 kts 122°
2026-05-07 15:08 53.63012 10.00339 57 ft 0 kts 122°
2026-05-07 15:11 53.63012 10.00338 57 ft 0 kts 122°
2026-05-07 15:13 53.63017 10.00323 59 ft 0 kts 123°
2026-05-07 15:14 53.63017 10.00324 57 ft 0 kts 123°
2026-05-07 15:15 53.63019 10.00317 49 ft 2 kts 123°
2026-05-07 15:15 53.63028 10.00294 49 ft 2 kts 123°
2026-05-07 15:15 53.63037 10.00271 49 ft 2 kts 123°
2026-05-07 15:16 53.63046 10.00248 49 ft 2 kts 130°
2026-05-07 15:16 53.63058 10.00230 49 ft 2 kts 152°
2026-05-07 15:16 53.63073 10.00221 51 ft 2 kts 180°
2026-05-07 15:16 53.63081 10.00222 52 ft 0 kts 188°
2026-05-07 15:19 53.63068 10.00216 49 ft 6 kts 199°
2026-05-07 15:19 53.63002 10.00156 51 ft 16 kts 208°
2026-05-07 15:19 53.62897 10.00047 51 ft 19 kts 210°
2026-05-07 15:19 53.62821 9.99882 52 ft 17 kts 246°
2026-05-07 15:20 53.62837 9.99775 52 ft 8 kts 312°
2026-05-07 15:20 53.62886 9.99726 51 ft 9 kts 332°
2026-05-07 15:20 53.62910 9.99705 50 ft 0 kts 333°
2026-05-07 15:23 53.63062 9.99573 53 ft 63 kts 333°
2026-05-07 15:23 53.63680 9.99041 49 ft 134 kts 333°
2026-05-07 15:24 53.64648 9.98200 408 ft 163 kts 336°
2026-05-07 15:24 53.65666 9.97348 1121 ft 167 kts 339°
2026-05-07 15:24 53.66771 9.96483 1554 ft 188 kts 339°
2026-05-07 15:24 53.68050 9.95499 1939 ft 214 kts 339°
2026-05-07 15:25 53.69458 9.94696 2771 ft 209 kts 358°
2026-05-07 15:25 53.70862 9.95028 3718 ft 203 kts 25°
2026-05-07 15:25 53.71974 9.96409 4507 ft 203 kts 53°
2026-05-07 15:25 53.72475 9.98582 5353 ft 201 kts 84°
2026-05-07 15:26 53.72255 10.00952 6003 ft 214 kts 103°
2026-05-07 15:26 53.72226 10.03506 6565 ft 223 kts 73°
2026-05-07 15:26 53.72836 10.05979 7112 ft 242 kts 74°
2026-05-07 15:26 53.72707 10.08915 7577 ft 266 kts 111°
2026-05-07 15:27 53.71701 10.11614 8384 ft 276 kts 125°
2026-05-07 15:27 53.70634 10.14314 9425 ft 278 kts 121°
2026-05-07 15:27 53.69645 10.17149 10395 ft 282 kts 119°
2026-05-07 15:27 53.68622 10.20042 11054 ft 298 kts 126°
2026-05-07 15:28 53.66997 10.22298 11443 ft 321 kts 155°
2026-05-07 15:28 53.64778 10.23294 11883 ft 341 kts 172°
2026-05-07 15:28 53.62386 10.23936 12491 ft 354 kts 170°
2026-05-07 15:28 53.59947 10.24775 13285 ft 361 kts 167°
2026-05-07 15:29 53.57479 10.25760 14101 ft 367 kts 166°
2026-05-07 15:29 53.54987 10.26823 14846 ft 372 kts 166°
2026-05-07 15:29 53.52461 10.27936 15599 ft 377 kts 166°
2026-05-07 15:29 53.49906 10.29080 16362 ft 382 kts 166°
2026-05-07 15:30 53.47322 10.30246 17124 ft 387 kts 166°
2026-05-07 15:30 53.44749 10.31412 17908 ft 392 kts 166°
2026-05-07 15:30 53.42104 10.32615 18668 ft 396 kts 166°
2026-05-07 15:30 53.39428 10.33834 19396 ft 400 kts 166°
2026-05-07 15:31 53.36725 10.35051 20162 ft 404 kts 166°
2026-05-07 15:31 53.33999 10.36269 20912 ft 407 kts 166°
2026-05-07 15:31 53.31250 10.37495 21626 ft 411 kts 166°
2026-05-07 15:31 53.28469 10.38736 22362 ft 415 kts 166°
2026-05-07 15:32 53.25666 10.39986 23088 ft 419 kts 166°
2026-05-07 15:32 53.22872 10.41233 23768 ft 424 kts 166°
2026-05-07 15:32 53.20008 10.42511 24347 ft 428 kts 166°
2026-05-07 15:32 53.17117 10.43798 24939 ft 432 kts 166°
2026-05-07 15:33 53.14200 10.45095 25517 ft 436 kts 166°
2026-05-07 15:33 53.11257 10.46388 26096 ft 439 kts 167°
2026-05-07 15:33 53.08261 10.47480 26689 ft 443 kts 170°
2026-05-07 15:33 53.05220 10.48393 27276 ft 446 kts 171°
2026-05-07 15:34 53.02142 10.49248 27848 ft 450 kts 171°
2026-05-07 15:34 52.99037 10.50114 28415 ft 454 kts 171°
2026-05-07 15:34 52.95962 10.50997 28968 ft 457 kts 171°
2026-05-07 15:34 52.92820 10.51930 29499 ft 461 kts 170°
2026-05-07 15:35 52.89652 10.52894 30037 ft 464 kts 170°
2026-05-07 15:35 52.86463 10.53878 30483 ft 468 kts 169°
2026-05-07 15:35 52.83254 10.54873 30905 ft 471 kts 169°
2026-05-07 15:35 52.80026 10.55872 31308 ft 474 kts 169°
2026-05-07 15:36 52.76772 10.56877 31691 ft 477 kts 169°
2026-05-07 15:36 52.73491 10.57888 32057 ft 481 kts 169°
2026-05-07 15:36 52.70236 10.58887 32409 ft 484 kts 169°
2026-05-07 15:36 52.66919 10.59902 32785 ft 486 kts 169°
2026-05-07 15:37 52.63579 10.60923 33133 ft 489 kts 169°
2026-05-07 15:37 52.60231 10.61945 33598 ft 489 kts 169°
2026-05-07 15:37 52.56888 10.62963 34098 ft 488 kts 169°
2026-05-07 15:37 52.53558 10.63975 34500 ft 487 kts 169°
2026-05-07 15:38 52.50229 10.64987 34897 ft 486 kts 170°
2026-05-07 15:38 52.46895 10.65997 35049 ft 488 kts 170°
2026-05-07 15:38 52.40225 10.68013 35068 ft 487 kts 170°
2026-05-07 15:39 52.33609 10.70008 35072 ft 487 kts 170°
2026-05-07 15:39 52.27027 10.72622 35083 ft 487 kts 161°
2026-05-07 15:40 52.20692 10.76577 35069 ft 488 kts 158°
2026-05-07 15:40 52.14414 10.80801 35072 ft 488 kts 158°
2026-05-07 15:41 52.08181 10.84985 35082 ft 488 kts 158°
2026-05-07 15:41 52.01887 10.89153 35083 ft 488 kts 158°
2026-05-07 15:42 51.95590 10.93289 35081 ft 489 kts 159°
2026-05-07 15:42 51.89282 10.97416 35078 ft 489 kts 159°
2026-05-07 15:43 51.83018 11.01504 35074 ft 489 kts 159°
2026-05-07 15:43 51.76711 11.05610 35072 ft 489 kts 159°
2026-05-07 15:44 51.70409 11.09694 35072 ft 488 kts 159°
2026-05-07 15:44 51.64107 11.13767 35071 ft 488 kts 159°
2026-05-07 15:45 51.57847 11.17806 35065 ft 487 kts 159°
2026-05-07 15:45 51.51556 11.21852 35066 ft 487 kts 159°
2026-05-07 15:46 51.42046 11.27945 35063 ft 499 kts 159°
2026-05-07 15:47 51.35549 11.32093 35057 ft 504 kts 159°
2026-05-07 15:47 51.30141 11.35536 35059 ft 504 kts 159°
2026-05-07 15:48 51.22563 11.40344 35055 ft 504 kts 159°
2026-05-07 15:48 51.16044 11.44468 35051 ft 505 kts 159°
2026-05-07 15:49 51.10614 11.47893 35055 ft 505 kts 159°
2026-05-07 15:49 51.04071 11.52007 35051 ft 506 kts 159°
2026-05-07 15:50 50.96458 11.56775 35050 ft 506 kts 159°
2026-05-07 15:50 50.91013 11.60177 35048 ft 507 kts 159°
2026-05-07 15:51 50.84456 11.64265 35045 ft 507 kts 159°
2026-05-07 15:51 50.77896 11.68341 35046 ft 506 kts 159°
2026-05-07 15:52 50.71343 11.72401 35042 ft 506 kts 159°
2026-05-07 15:52 50.64826 11.76425 35039 ft 506 kts 160°
2026-05-07 15:53 50.58270 11.80461 35033 ft 506 kts 160°
2026-05-07 15:53 50.55158 11.82372 35028 ft 506 kts 160°
2026-05-07 15:54 50.50736 11.85084 35023 ft 504 kts 160°
2026-05-07 15:54 50.44252 11.89052 35022 ft 495 kts 160°
2026-05-07 15:55 50.37914 11.92919 35018 ft 491 kts 160°
2026-05-07 15:55 50.31542 11.96794 35019 ft 491 kts 160°
2026-05-07 15:56 50.25173 12.00656 35020 ft 491 kts 160°
2026-05-07 15:56 50.18796 12.04512 35020 ft 491 kts 160°
2026-05-07 15:57 50.12426 12.08353 35019 ft 491 kts 160°
2026-05-07 15:57 50.06097 12.12158 35014 ft 491 kts 160°
2026-05-07 15:58 49.99722 12.15981 35014 ft 491 kts 160°
2026-05-07 15:58 49.93276 12.19378 34848 ft 485 kts 168°
2026-05-07 15:58 49.89968 12.20279 34208 ft 482 kts 174°
2026-05-07 15:59 49.86634 12.20876 33331 ft 483 kts 176°
2026-05-07 15:59 49.83322 12.21324 32356 ft 486 kts 176°
2026-05-07 15:59 49.79936 12.21720 31327 ft 491 kts 176°
2026-05-07 15:59 49.76508 12.22112 30270 ft 496 kts 176°
2026-05-07 16:00 49.73056 12.22523 29190 ft 499 kts 176°
2026-05-07 16:00 49.69607 12.22960 28426 ft 494 kts 176°
2026-05-07 16:00 49.66204 12.23410 27767 ft 488 kts 176°
2026-05-07 16:00 49.62843 12.23862 27068 ft 483 kts 176°
2026-05-07 16:01 49.59507 12.24311 26406 ft 478 kts 176°
2026-05-07 16:01 49.56211 12.24754 25757 ft 474 kts 176°
2026-05-07 16:01 49.52941 12.25191 25118 ft 469 kts 177°
2026-05-07 16:01 49.49700 12.25623 24479 ft 465 kts 177°
2026-05-07 16:02 49.46537 12.26043 23864 ft 461 kts 177°
2026-05-07 16:02 49.43359 12.26463 23158 ft 457 kts 177°
2026-05-07 16:02 49.40211 12.26877 22468 ft 452 kts 177°
2026-05-07 16:02 49.37092 12.27288 21778 ft 447 kts 178°
2026-05-07 16:03 49.34013 12.27693 21073 ft 442 kts 178°
2026-05-07 16:03 49.30963 12.28094 20391 ft 438 kts 178°
2026-05-07 16:03 49.27944 12.28492 19735 ft 433 kts 178°
2026-05-07 16:03 49.24955 12.28886 19066 ft 429 kts 178°
2026-05-07 16:04 49.21989 12.29276 18413 ft 426 kts 178°
2026-05-07 16:04 49.19049 12.29662 17670 ft 422 kts 178°
2026-05-07 16:04 49.16177 12.30039 16986 ft 418 kts 178°
2026-05-07 16:04 49.13296 12.30416 16309 ft 413 kts 178°
2026-05-07 16:05 49.10449 12.30788 15644 ft 409 kts 178°
2026-05-07 16:05 49.07631 12.31155 14986 ft 404 kts 178°
2026-05-07 16:05 49.04844 12.31520 14350 ft 400 kts 178°
2026-05-07 16:05 49.02088 12.31880 13699 ft 395 kts 178°
2026-05-07 16:06 48.99361 12.32234 12962 ft 392 kts 178°
2026-05-07 16:06 48.96664 12.32582 12251 ft 387 kts 178°
2026-05-07 16:06 48.93998 12.32927 11707 ft 380 kts 178°
2026-05-07 16:06 48.91410 12.33266 11425 ft 365 kts 178°
2026-05-07 16:07 48.88936 12.33592 11124 ft 345 kts 178°
2026-05-07 16:07 48.86639 12.33899 10720 ft 318 kts 178°
2026-05-07 16:07 48.84538 12.34180 10314 ft 298 kts 179°
2026-05-07 16:07 48.82491 12.34444 10064 ft 291 kts 179°
2026-05-07 16:08 48.80493 12.34680 10018 ft 287 kts 180°
2026-05-07 16:08 48.78513 12.34503 10034 ft 284 kts 192°
2026-05-07 16:08 48.76577 12.33966 10032 ft 282 kts 195°
2026-05-07 16:08 48.74665 12.33295 10013 ft 282 kts 197°
2026-05-07 16:09 48.72776 12.32566 9737 ft 278 kts 198°
2026-05-07 16:09 48.70905 12.31814 9282 ft 278 kts 198°
2026-05-07 16:09 48.69016 12.31180 8881 ft 278 kts 194°
2026-05-07 16:09 48.67148 12.30616 8472 ft 277 kts 194°
2026-05-07 16:10 48.65268 12.30054 8102 ft 274 kts 194°
2026-05-07 16:10 48.63401 12.29497 7699 ft 274 kts 194°
2026-05-07 16:10 48.61533 12.28935 7273 ft 273 kts 194°
2026-05-07 16:10 48.59673 12.28370 6903 ft 272 kts 194°
2026-05-07 16:11 48.57824 12.27815 6510 ft 271 kts 194°
2026-05-07 16:11 48.55980 12.27256 6097 ft 270 kts 194°
2026-05-07 16:11 48.54140 12.26697 5741 ft 268 kts 194°
2026-05-07 16:11 48.52319 12.26138 5338 ft 267 kts 194°
2026-05-07 16:12 48.50500 12.25570 5053 ft 266 kts 194°
2026-05-07 16:12 48.48707 12.25001 5000 ft 268 kts 194°
2026-05-07 16:12 48.46882 12.24429 5000 ft 268 kts 194°
2026-05-07 16:12 48.45063 12.23801 4995 ft 268 kts 200°
2026-05-07 16:13 48.43479 12.22427 5001 ft 262 kts 225°
2026-05-07 16:13 48.42283 12.20418 4996 ft 250 kts 233°
2026-05-07 16:13 48.41239 12.18427 4994 ft 235 kts 234°
2026-05-07 16:13 48.40249 12.16524 4997 ft 229 kts 234°
2026-05-07 16:14 48.39268 12.14642 4997 ft 229 kts 234°
2026-05-07 16:14 48.38285 12.12753 5003 ft 229 kts 234°
2026-05-07 16:14 48.37360 12.10810 5006 ft 228 kts 242°
2026-05-07 16:14 48.36751 12.08671 4998 ft 222 kts 257°
2026-05-07 16:15 48.36505 12.06466 4972 ft 207 kts 265°
2026-05-07 16:15 48.36333 12.04347 4772 ft 203 kts 263°
2026-05-07 16:15 48.36152 12.02233 4485 ft 205 kts 265°
2026-05-07 16:15 48.35990 12.00115 4222 ft 203 kts 265°
2026-05-07 16:16 48.35826 11.97994 3902 ft 205 kts 265°
2026-05-07 16:16 48.35660 11.95877 3628 ft 204 kts 265°
2026-05-07 16:16 48.35499 11.93778 3363 ft 200 kts 265°
2026-05-07 16:16 48.35344 11.91757 3073 ft 187 kts 264°
2026-05-07 16:17 48.35201 11.89929 2867 ft 166 kts 265°
2026-05-07 16:17 48.35073 11.88273 2626 ft 153 kts 265°
2026-05-07 16:17 48.34959 11.86765 2396 ft 143 kts 265°
2026-05-07 16:17 48.34840 11.85317 2111 ft 137 kts 265°
2026-05-07 16:18 48.34730 11.83926 1884 ft 133 kts 267°
2026-05-07 16:18 48.34636 11.82537 1768 ft 134 kts 265°
2026-05-07 16:18 48.34525 11.81148 1613 ft 134 kts 266°
2026-05-07 16:18 48.34423 11.79771 1481 ft 128 kts 265°
2026-05-07 16:19 48.34361 11.78779 1482 ft 50 kts 274°
2026-05-07 16:19 48.34393 11.78559 1476 ft 19 kts 286°
2026-05-07 16:19 48.34446 11.78355 1481 ft 13 kts 293°
2026-05-07 16:19 48.34448 11.78348 1478 ft 0 kts 293°
2026-05-07 16:20 48.34452 11.78336 1479 ft 5 kts 293°
2026-05-07 16:20 48.34479 11.78241 1483 ft 14 kts 293°
2026-05-07 16:20 48.34536 11.78114 1476 ft 14 kts 324°
2026-05-07 16:20 48.34622 11.78073 1482 ft 11 kts 358°
2026-05-07 16:21 48.34678 11.78133 1479 ft 11 kts 56°
2026-05-07 16:21 48.34693 11.78267 1488 ft 19 kts 84°
2026-05-07 16:21 48.34707 11.78443 1488 ft 0 kts 83°
2026-05-07 16:21 48.34707 11.78444 1487 ft 2 kts 84°
2026-05-07 16:22 48.34713 11.78537 1482 ft 15 kts 84°
2026-05-07 16:22 48.34725 11.78714 1478 ft 18 kts 82°
2026-05-07 16:22 48.34741 11.78909 1484 ft 20 kts 83°
2026-05-07 16:22 48.34758 11.79127 1486 ft 22 kts 83°
2026-05-07 16:23 48.34777 11.79363 1485 ft 23 kts 84°
2026-05-07 16:23 48.34823 11.79556 1484 ft 13 kts 30°
2026-05-07 16:23 48.34883 11.79556 1477 ft 10 kts 351°
2026-05-07 16:23 48.34961 11.79558 1476 ft 6 kts 34°
2026-05-07 16:24 48.34982 11.79588 1480 ft 2 kts 25°
2026-05-07 16:24 48.35019 11.79592 1484 ft 9 kts
2026-05-07 16:24 48.35093 11.79610 1476 ft 6 kts 44°
2026-05-07 16:24 48.35099 11.79661 1483 ft 9 kts 85°
2026-05-07 16:25 48.35108 11.79792 1492 ft 17 kts 83°
2026-05-07 16:25 48.35124 11.80005 1482 ft 22 kts 83°
2026-05-07 16:25 48.35155 11.80163 1476 ft 8 kts 36°
2026-05-07 16:25 48.35209 11.80180 1486 ft 11 kts
2026-05-07 16:26 48.35309 11.80159 1479 ft 12 kts 333°
2026-05-07 16:26 48.35328 11.80094 1480 ft 5 kts 268°
2026-05-07 16:26 48.35322 11.80018 1492 ft 0 kts 263°